• In Austria
  • List of Countries
  • For 7 days
  • Water Temperature
  • Satellite Maps
  • Weather Map
  • News
  • Weather Widgets
  • user-avatar
    Login

    Hourly Weather Yulara

    Today, 20 October, Saturday

    Time Temperature Precipitation Wind Pressure Humidity
    00:00 +24°C° 0 mm 8 mps 719 mmHg 32%
    01:00 +23°C° 0 mm 8 mps 719 mmHg 33%
    02:00 +22°C° 0 mm 8 mps 719 mmHg 35%
    03:00 +21°C° 0 mm 7 mps 719 mmHg 37%
    04:00 +20°C° 0 mm 8 mps 719 mmHg 40%
    05:00 +18°C° 0 mm 8 mps 720 mmHg 44%
    06:00 +17°C° 0 mm 8 mps 720 mmHg 47%
    07:00 +20°C° 0 mm 8 mps 720 mmHg 43%
    08:00 +21°C° 0 mm 8 mps 721 mmHg 39%
    09:00 +22°C° 0 mm 8 mps 722 mmHg 36%
    10:00 +24°C° 0 mm 7 mps 721 mmHg 31%
    11:00 +27°C° 0 mm 7 mps 721 mmHg 27%
    12:00 +28°C° 0 mm 6 mps 720 mmHg 22%
    13:00 +29°C° 0 mm 6 mps 720 mmHg 20%
    14:00 +30°C° 0 mm 5 mps 719 mmHg 18%
    15:00 +32°C° 0 mm 5 mps 719 mmHg 16%
    16:00 +32°C° 0 mm 5 mps 719 mmHg 16%
    17:00 +30°C° 0 mm 5 mps 719 mmHg 15%
    18:00 +30°C° 0 mm 5 mps 719 mmHg 15%
    19:00 +29°C° 0 mm 5 mps 719 mmHg 16%
    20:00 +27°C° 0 mm 5 mps 720 mmHg 17%
    21:00 +26°C° 0 mm 5 mps 720 mmHg 18%
    22:00 +24°C° 0 mm 6 mps 720 mmHg 19%
    23:00 +23°C° 0 mm 6 mps 720 mmHg 19%

    Tomorrow, 21 October, Sunday

    Time Temperature Precipitation Wind Pressure Humidity
    00:00 +23°C° 0 mm 6 mps 719 mmHg 20%
    01:00 +22°C° 0 mm 6 mps 719 mmHg 21%
    02:00 +21°C° 0 mm 6 mps 719 mmHg 22%
    03:00 +20°C° 0 mm 5 mps 719 mmHg 23%
    04:00 +20°C° 0 mm 5 mps 719 mmHg 24%
    05:00 +19°C° 0 mm 5 mps 719 mmHg 25%
    06:00 +19°C° 0 mm 4 mps 719 mmHg 26%
    07:00 +21°C° 0 mm 5 mps 719 mmHg 23%
    08:00 +24°C° 0 mm 6 mps 720 mmHg 20%
    09:00 +27°C° 0 mm 7 mps 720 mmHg 17%
    10:00 +29°C° 0 mm 6 mps 720 mmHg 15%
    11:00 +32°C° 0 mm 5 mps 719 mmHg 14%
    12:00 +34°C° 0 mm 4 mps 718 mmHg 13%
    13:00 +35°C° 0 mm 4 mps 718 mmHg 12%
    14:00 +36°C° 0 mm 3 mps 717 mmHg 10%
    15:00 +36°C° 0 mm 3 mps 716 mmHg 9%
    16:00 +36°C° 0 mm 3 mps 716 mmHg 9%
    17:00 +36°C° 0 mm 3 mps 716 mmHg 10%
    18:00 +35°C° 0 mm 3 mps 716 mmHg 10%
    19:00 +34°C° 0 mm 3 mps 716 mmHg 11%
    20:00 +31°C° 0 mm 2 mps 716 mmHg 11%
    21:00 +29°C° 0 mm 2 mps 716 mmHg 12%
    22:00 +28°C° 0 mm 3 mps 716 mmHg 13%
    23:00 +28°C° 0 mm 3 mps 716 mmHg 15%

    Day after tomorrow, 22 October, Monday

    Time Temperature Precipitation Wind Pressure Humidity
    00:00 +27°C° 0 mm 3 mps 716 mmHg 16%
    01:00 +26°C° 0 mm 3 mps 716 mmHg 17%
    02:00 +25°C° 0 mm 3 mps 715 mmHg 18%
    03:00 +25°C° 0 mm 3 mps 715 mmHg 18%
    04:00 +25°C° 0 mm 4 mps 715 mmHg 19%
    05:00 +23°C° 0 mm 4 mps 715 mmHg 19%
    06:00 +23°C° 0 mm 4 mps 715 mmHg 19%
    07:00 +27°C° 0 mm 4 mps 716 mmHg 17%
    08:00 +32°C° 0 mm 4 mps 716 mmHg 14%
    09:00 +35°C° 0 mm 5 mps 716 mmHg 11%
    10:00 +37°C° 0 mm 5 mps 716 mmHg 10%
    11:00 +40°C° 0 mm 5 mps 716 mmHg 9%
    12:00 +41°C° 0 mm 6 mps 716 mmHg 7%
    13:00 +42°C° 0 mm 6 mps 715 mmHg 7%
    14:00 +42°C° 0 mm 6 mps 714 mmHg 7%
    15:00 +42°C° 0 mm 6 mps 714 mmHg 7%
    16:00 +41°C° 0 mm 5 mps 714 mmHg 8%
    17:00 +40°C° 0 mm 4 mps 714 mmHg 8%
    18:00 +38°C° 0 mm 3 mps 714 mmHg 9%
    19:00 +37°C° 0 mm 5 mps 714 mmHg 11%
    20:00 +35°C° 0 mm 6 mps 715 mmHg 13%
    21:00 +34°C° 0 mm 8 mps 716 mmHg 15%
    22:00 +32°C° 0 mm 8 mps 716 mmHg 19%
    23:00 +29°C° 0 mm 8 mps 716 mmHg 22%

    23 October, Tuesday

    Time Temperature Precipitation Wind Pressure Humidity
    00:00 +28°C° 0 mm 8 mps 716 mmHg 26%
    01:00 +26°C° 0 mm 8 mps 716 mmHg 32%
    02:00 +24°C° 0 mm 7 mps 716 mmHg 37%
    03:00 +23°C° 0 mm 7 mps 717 mmHg 43%
    04:00 +22°C° 0 mm 8 mps 717 mmHg 45%
    05:00 +21°C° 0 mm 8 mps 718 mmHg 47%
    06:00 +19°C° 0 mm 9 mps 718 mmHg 49%
    07:00 +21°C° 0 mm 9 mps 719 mmHg 45%
    08:00 +22°C° 0 mm 9 mps 719 mmHg 42%
    09:00 +24°C° 0 mm 10 mps 720 mmHg 39%
    10:00 +27°C° 0 mm 9 mps 720 mmHg 34%
    11:00 +29°C° 0 mm 9 mps 719 mmHg 29%
    12:00 +32°C° 0 mm 9 mps 719 mmHg 25%
    13:00 +32°C° 0 mm 8 mps 718 mmHg 23%
    14:00 +33°C° 0 mm 7 mps 718 mmHg 22%
    15:00 +34°C° 0 mm 7 mps 717 mmHg 20%
    16:00 +33°C° 0 mm 7 mps 717 mmHg 21%
    17:00 +33°C° 0 mm 7 mps 717 mmHg 21%
    18:00 +32°C° 0 mm 7 mps 717 mmHg 22%
    19:00 +30°C° 0 mm 7 mps 718 mmHg 23%
    20:00 +29°C° 0 mm 7 mps 718 mmHg 24%
    21:00 +27°C° 0 mm 7 mps 719 mmHg 25%
    22:00 +26°C° 0 mm 7 mps 719 mmHg 26%
    23:00 +26°C° 0 mm 7 mps 719 mmHg 27%

    24 October, Wednesday

    Time Temperature Precipitation Wind Pressure Humidity
    00:00 +24°C° 0 mm 7 mps 718 mmHg 28%
    01:00 +23°C° 0 mm 7 mps 718 mmHg 28%
    02:00 +23°C° 0 mm 7 mps 718 mmHg 29%
    03:00 +22°C° 0 mm 7 mps 718 mmHg 30%
    04:00 +22°C° 0.2 mm 7 mps 718 mmHg 31%
    05:00 +22°C° 0.2 mm 6 mps 718 mmHg 32%
    06:00 +21°C° 0.2 mm 6 mps 718 mmHg 33%
    07:00 +23°C° 0 mm 7 mps 719 mmHg 29%
    08:00 +26°C° 0 mm 8 mps 719 mmHg 26%
    09:00 +28°C° 0 mm 9 mps 720 mmHg 22%
    10:00 +31°C° 0 mm 9 mps 719 mmHg 20%
    11:00 +33°C° 0 mm 9 mps 718 mmHg 18%
    12:00 +37°C° 0 mm 9 mps 718 mmHg 16%
    13:00 +37°C° 0 mm 9 mps 717 mmHg 15%
    14:00 +38°C° 0 mm 9 mps 716 mmHg 14%
    15:00 +38°C° 0 mm 9 mps 716 mmHg 13%
    16:00 +38°C° 0 mm 9 mps 715 mmHg 13%
    17:00 +37°C° 0 mm 8 mps 715 mmHg 13%
    18:00 +35°C° 0 mm 8 mps 715 mmHg 13%
    19:00 +33°C° 0 mm 9 mps 715 mmHg 15%
    20:00 +31°C° 0 mm 10 mps 715 mmHg 16%
    21:00 +29°C° 0 mm 10 mps 715 mmHg 18%
    22:00 +29°C° 0 mm 10 mps 715 mmHg 18%
    23:00 +29°C° 0 mm 9 mps 715 mmHg 18%

    25 October, Thursday

    Time Temperature Precipitation Wind Pressure Humidity
    00:00 +29°C° 0 mm 8 mps 715 mmHg 18%
    01:00 +28°C° 0.1 mm 7 mps 715 mmHg 20%
    02:00 +28°C° 0.1 mm 6 mps 715 mmHg 21%
    03:00 +27°C° 0.1 mm 4 mps 714 mmHg 23%
    04:00 +27°C° 0.1 mm 5 mps 715 mmHg 23%
    05:00 +27°C° 0.1 mm 6 mps 715 mmHg 23%
    06:00 +27°C° 0.1 mm 7 mps 715 mmHg 23%
    07:00 +29°C° 0.3 mm 7 mps 715 mmHg 22%
    08:00 +31°C° 0.3 mm 8 mps 715 mmHg 21%
    09:00 +33°C° 0.3 mm 8 mps 716 mmHg 20%
    10:00 +34°C° 0.1 mm 9 mps 715 mmHg 21%
    11:00 +35°C° 0.1 mm 9 mps 714 mmHg 22%
    12:00 +37°C° 0.1 mm 9 mps 714 mmHg 23%
    13:00 +37°C° 0.1 mm 10 mps 713 mmHg 23%
    14:00 +37°C° 0.1 mm 11 mps 713 mmHg 24%
    15:00 +38°C° 0.1 mm 11 mps 712 mmHg 25%
    16:00 +38°C° 0 mm 10 mps 712 mmHg 23%
    17:00 +38°C° 0 mm 9 mps 712 mmHg 21%
    18:00 +38°C° 0 mm 8 mps 712 mmHg 19%
    19:00 +36°C° 0 mm 7 mps 712 mmHg 20%
    20:00 +35°C° 0 mm 7 mps 712 mmHg 21%
    21:00 +34°C° 0 mm 7 mps 713 mmHg 23%
    22:00 +33°C° 0 mm 7 mps 712 mmHg 22%
    23:00 +33°C° 0 mm 7 mps 712 mmHg 22%
    Show more